Tracking 29489 objects as of 10-Sep-2024
HD Live streaming from Space Station
objects crossing your sky now

FENGYUN 1C DEB

Track FENGYUN 1C DEB now!
10-day predictions


NORAD ID: 31294
Int'l Code: 1999-025BPC
Perigee: 780.5 km
Apogee: 926.3 km
Inclination: 98.5 °
Period: 101.9 minutes
Semi major axis: 7224 km
RCS: 0.012 m2 (small)
Launch date: May 10, 1999
Source: People's Republic of China (PRC)
Launch site: Taiyaun Space Center, China (TSC)

Note: This is SATELLITE DEBRIS
Your satellite tracking list
Your tracking list is empty




NASA's NSSDC Master Catalog

Two Line Element Set (TLE):
1 31294U 99025BPC 24252.45628844  .00002727  00000-0  13921-2 0  9996
2 31294  98.5389 261.9288 0100887 221.3758 137.9743 14.13841704903459
Source of the keplerian elements: AFSPC